STARLINK-1166 (45060 NORAD) Tracking and Keplerian Element Data

This shows tracking and keplerian element data for the satellite.

Feedback or suggestion? Click here.




ElementValue
Catalog45060
NameSTARLINK-1166
Epoch Orbit1024
Epoch Day93.91667824
Epoch Year2020
RAAN293.3808
Inclination53.0018
Eccentricity0.0001349
Argument of Perigee75.0231
Mean Anonmoly17.9924
Mean Motion15.0393473
Decay Rate0.00013793
L11 45060U 20006S 20093.91667824 .00013793 00000-0 10071-2 0 9994
L22 45060 53.0018 293.3808 0001349 75.0231 17.9924 15.03934730 10246

Live tracking and technical data element details for STARLINK-1166 (NORAD 45060). STARLINK-1166 can be tracked NOW for your location showing map with azimuth and elevation plus other details from your city location.

Track the satellite on the map from your city or location and see movement details for azimuth, elevation, latitude, longitude, range, height, and movement on the map or in text.







IsCatalogInMostPopularTable: catalog: 45060, numindb: 11
Update: records affected: 1



GetName: 45060 STARLINK-1166

Hit Count: updated at: Fri, 03 Apr 2020 23:15:08 GMT